Shaw Air Force Base
KSSC : now visible

Airfield :











YOU CAN JOIN US ON...

 
LOGIN :

Register | Disclaimer

   EN    FR    IT 

 









Legend :    VFR   Marginal VFR   IFR   Intensive IFR   Very Intensive IFR
Visi :
Ceiling :
>= 8 km
>= 3000ft
5 to 8 km
1000 to 3000 ft
1500m to 5 km
500 to 1000 ft
800 to 1500m
200 to 500 ft
< 800m
< 200 ft
Symbols :   Thunderstorms  Fog  Heavy snow  Heavy precipitations  Wind > 20 kt






- Airport Elevation : 241 ft


KSSC - Shaw Air Force Base

CURRENT METAR :
  • 200856Z AUTO 04005KT 10SM CLR 14/13 A3017 RMK AO2 SLP217 T01410126 58003 $

EXPIRED METARs :
  • 200756Z AUTO 04006KT 10SM CLR 14/13 A3018 RMK AO2 SLP220 T01420129 $
  • 200656Z AUTO 05006KT 10SM CLR 14/13 A3018 RMK AO2 SLP220 T01440129 $

TAF TAF KSSC
Valid from the 20 at 07:00 until the 21 at 13:00 UTC


200700Z 2007/2113 04006KT 9999 SCT035 QNH3015INS
BECMG 2012/2013 03006KT 9999 SCT010 BKN020 QNH3013INS
BECMG 2102/2103 05006KT 8000 BR FEW005 SCT010 BKN020 QNH3017INS
BECMG 2105/2106 05006KT 3200 BR BKN005 QNH3016INS TX25/2019Z TN13/2011Z
KZJX FIR / North America



MET'MAP, your aeronautical weather chart ! - Copyright ORBIFLY December 2007 - Disclaimer

ORBIFLY MET'MAP TEAM :

Programming & Development : Alexandra Zaïnal
Concept & original design : Baudouin d'Aumeries
Assistance for programming : Marc-Olivier Méhu
Technical & hardware support : Manuel Goepfert

Contact : metmap@orbifly.com




SOURCES & CREDITS :

   NOAA       Earth
Advisory